Ahoskie, NC

11:28 AM EDT on August 16, 2017 (GMT -0400)
Tri County

Weather History for KASJ - November, 2012

Change the Weather History Date:

Thursday, November 8, 2012

  Actual Average (KEMV) Record (KEMV)
Temperature  
Mean Temperature 44 °F -  
Max Temperature 55 °F 59 °F 75 °F (2005)
Min Temperature 32 °F 36 °F 27 °F (1984)
Degree Days  
Heating Degree Days 22    
Moisture  
Dew Point 27 °F    
Average Humidity 63    
Maximum Humidity 93    
Minimum Humidity 12    
Precipitation  
Precipitation 0.00 in - - ()
Sea Level Pressure  
Sea Level Pressure 29.99 in    
Wind  
Wind Speed 1 mph (NW)    
Max Wind Speed 9 mph    
Max Gust Speed 17 mph    
Visibility 10 miles    
Events      
Averages and records for this station are not official NWS values.
T = Trace of Precipitation, MM = Missing Value Source: NWS Daily Summary

Daily Weather History Graph

Daily Weather History Graph

Search for Another Location

Airport or City:

Trip Planner

Search our weather history database for the weather conditions in past years. The results will help you decide how hot, cold, wet, or windy it might be!

Date:

Astronomy

Nov. 08, 2012 Rise Set
Actual Time 6:39 AM EST 5:05 PM EST
Civil Twilight 6:12 AM EST 5:32 PM EST
Nautical Twilight 5:41 AM EST 6:03 PM EST
Astronomical Twilight 5:11 AM EST 6:33 PM EST
Moon 12:42 AM EST (11/8) 1:36 PM EST (11/8)
Length of Visible Light 11h 20m
Length of Day
10h 26m
Waning Crescent, 33% of the Moon is Illuminated
Nov 8
Waning Crescent
Nov 13
New
Nov 20
First Quarter
Nov 28
Full
Dec 6
Last Quarter

Hourly Weather History & Observations

Time (EST) Temp. Windchill Dew Point Humidity Pressure Visibility Wind Dir Wind Speed Gust Speed Precip Events Conditions
12:15 AM 35.6 °F - 33.8 °F 93% 29.92 in 10.0 mi Calm Calm - N/A   Mostly Cloudy
12:55 AM 35.6 °F - 32.0 °F 87% 29.93 in 10.0 mi Calm Calm - N/A   Mostly Cloudy
1:15 AM 35.6 °F - 32.0 °F 87% 29.92 in 10.0 mi Calm Calm - N/A   Scattered Clouds
1:35 AM 35.6 °F - 32.0 °F 87% 29.93 in 10.0 mi Calm Calm - N/A   Clear
2:15 AM 35.6 °F - 32.0 °F 87% 29.93 in 10.0 mi Calm Calm - N/A   Scattered Clouds
2:35 AM 35.6 °F - 32.0 °F 87% 29.93 in 10.0 mi Calm Calm - N/A   Scattered Clouds
2:55 AM 35.6 °F - 32.0 °F 87% 29.93 in 10.0 mi Calm Calm - N/A   Clear
3:15 AM 35.6 °F - 32.0 °F 87% 29.93 in 10.0 mi Calm Calm - N/A   Mostly Cloudy
3:35 AM 35.6 °F - 32.0 °F 87% 29.93 in 10.0 mi Calm Calm - N/A   Overcast
3:55 AM 35.6 °F - 32.0 °F 87% 29.94 in 10.0 mi Calm Calm - N/A   Overcast
4:15 AM 35.6 °F - 32.0 °F 87% 29.94 in 10.0 mi Calm Calm - N/A   Mostly Cloudy
4:35 AM 37.4 °F - 32.0 °F 81% 29.94 in 10.0 mi Calm Calm - N/A   Scattered Clouds
4:55 AM 37.4 °F - 32.0 °F 81% 29.94 in 10.0 mi Calm Calm - N/A   Clear
5:15 AM 35.6 °F - 32.0 °F 87% 29.95 in 10.0 mi Calm Calm - N/A   Clear
5:35 AM 35.6 °F - 30.2 °F 81% 29.95 in 10.0 mi Calm Calm - N/A   Scattered Clouds
5:55 AM 35.6 °F - 30.2 °F 81% 29.96 in 10.0 mi Calm Calm - N/A   Scattered Clouds
6:15 AM 35.6 °F - 30.2 °F 81% 29.96 in 10.0 mi Calm Calm - N/A   Clear
6:35 AM 35.6 °F - 30.2 °F 81% 29.97 in 10.0 mi Calm Calm - N/A   Clear
6:55 AM 35.6 °F - 32.0 °F 87% 29.98 in 10.0 mi Calm Calm - N/A   Clear
7:15 AM 37.4 °F - 32.0 °F 81% 29.98 in 10.0 mi Calm Calm - N/A   Clear
7:35 AM 37.4 °F - 32.0 °F 81% 29.99 in 10.0 mi Calm Calm - N/A   Clear
7:55 AM 37.4 °F - 32.0 °F 81% 30.00 in 10.0 mi Calm Calm - N/A   Clear
8:15 AM 37.4 °F - 32.0 °F 81% 30.00 in 10.0 mi Calm Calm - N/A   Clear
8:35 AM 39.2 °F - 32.0 °F 75% 30.01 in 10.0 mi Calm Calm - N/A   Clear
8:55 AM 42.8 °F - 33.8 °F 70% 30.01 in 10.0 mi Calm Calm - N/A   Clear
9:15 AM 44.6 °F - 33.8 °F 66% 30.01 in 10.0 mi Calm Calm - N/A   Clear
9:35 AM 44.6 °F - 32.0 °F 61% 30.01 in 10.0 mi Calm Calm - N/A   Clear
9:55 AM 44.6 °F 42.2 °F 32.0 °F 61% 30.01 in 10.0 mi WNW 4.6 mph - N/A   Clear
10:15 AM 46.4 °F - 30.2 °F 53% 30.01 in 10.0 mi Calm Calm - N/A   Clear
10:35 AM 50.0 °F - 26.6 °F 40% 30.00 in 10.0 mi WNW 5.8 mph - N/A   Clear
10:55 AM 50.0 °F - 21.2 °F 32% 30.00 in 10.0 mi NNW 8.1 mph - N/A   Clear
11:15 AM 51.8 °F - 21.2 °F 30% 29.99 in 10.0 mi NW 6.9 mph - N/A   Clear
11:35 AM 51.8 °F - 21.2 °F 30% 29.98 in 10.0 mi NW 5.8 mph - N/A   Clear
11:55 AM 51.8 °F - 17.6 °F 26% 29.98 in 10.0 mi NW 8.1 mph - N/A   Clear
12:15 PM 53.6 °F - 19.4 °F 26% 29.98 in 10.0 mi NW 5.8 mph - N/A   Clear
12:35 PM 53.6 °F - 14.0 °F 21% 29.97 in 10.0 mi NW 9.2 mph 17.3 mph N/A   Clear
12:55 PM 53.6 °F - 10.4 °F 18% 29.96 in 10.0 mi WNW 6.9 mph - N/A   Clear
1:15 PM 53.6 °F - 14.0 °F 21% 29.96 in 10.0 mi NNW 4.6 mph - N/A   Clear
1:35 PM 53.6 °F - 10.4 °F 18% 29.96 in 10.0 mi NW 4.6 mph - N/A   Clear
1:55 PM 53.6 °F - 6.8 °F 15% 29.96 in 10.0 mi NNW 8.1 mph - N/A   Clear
2:15 PM 55.4 °F - 12.2 °F 18% 29.96 in 10.0 mi WNW 3.5 mph - N/A   Clear
2:35 PM 55.4 °F - 12.2 °F 18% 29.96 in 10.0 mi WNW 5.8 mph - N/A   Clear
2:55 PM 55.4 °F - 3.2 °F 12% 29.96 in 10.0 mi NW 6.9 mph 16.1 mph N/A   Clear
3:15 PM 55.4 °F - 5.0 °F 13% 29.96 in 10.0 mi West 4.6 mph - N/A   Clear
3:35 PM 53.6 °F - 5.0 °F 14% 29.96 in 10.0 mi NW 3.5 mph - N/A   Clear
3:55 PM 53.6 °F - 10.4 °F 18% 29.97 in 10.0 mi Calm Calm - N/A   Clear
4:15 PM 53.6 °F - 14.0 °F 21% 29.97 in 10.0 mi Calm Calm - N/A   Clear
4:35 PM 51.8 °F - 17.6 °F 26% 29.98 in 10.0 mi Calm Calm - N/A   Clear
4:55 PM 50.0 °F - 26.6 °F 40% 29.98 in 10.0 mi Calm Calm - N/A   Clear
5:15 PM 46.4 °F - 28.4 °F 50% 29.98 in 10.0 mi Calm Calm - N/A   Clear
5:35 PM 44.6 °F - 32.0 °F 61% 29.99 in 10.0 mi Calm Calm - N/A   Clear
5:55 PM 44.6 °F - 32.0 °F 61% 30.00 in 10.0 mi Calm Calm - N/A   Clear
6:15 PM 42.8 °F - 32.0 °F 66% 30.00 in 10.0 mi Calm Calm - N/A   Clear
6:35 PM 41.0 °F - 30.2 °F 65% 30.01 in 10.0 mi Calm Calm - N/A   Clear
6:55 PM 41.0 °F - 30.2 °F 65% 30.01 in 10.0 mi Calm Calm - N/A   Clear
7:15 PM 42.8 °F - 32.0 °F 66% 30.02 in 10.0 mi Calm Calm - N/A   Clear
7:35 PM 39.2 °F - 30.2 °F 70% 30.02 in 10.0 mi Calm Calm - N/A   Clear
7:55 PM 37.4 °F - 30.2 °F 75% 30.03 in 10.0 mi Calm Calm - N/A   Clear
8:15 PM 37.4 °F - 32.0 °F 81% 30.03 in 10.0 mi Calm Calm - N/A   Clear
8:35 PM 35.6 °F - 32.0 °F 87% 30.04 in 10.0 mi Calm Calm - N/A   Clear
8:55 PM 33.8 °F - 30.2 °F 87% 30.05 in 10.0 mi Calm Calm - N/A   Clear
9:15 PM 35.6 °F - 32.0 °F 87% 30.05 in 10.0 mi Calm Calm - N/A   Clear
9:35 PM 35.6 °F - 30.2 °F 81% 30.05 in 10.0 mi Calm Calm - N/A   Clear
9:55 PM 33.8 °F - 30.2 °F 87% 30.06 in 10.0 mi Calm Calm - N/A   Clear
10:15 PM 33.8 °F - 30.2 °F 87% 30.06 in 10.0 mi Calm Calm - N/A   Clear
10:35 PM 33.8 °F - 30.2 °F 87% 30.07 in 10.0 mi Calm Calm - N/A   Clear
10:55 PM 33.8 °F - 30.2 °F 87% 30.08 in 10.0 mi Calm Calm - N/A   Clear
11:15 PM 32.0 °F - 30.2 °F 93% 30.08 in 10.0 mi Calm Calm - N/A   Clear
11:35 PM 32.0 °F - 30.2 °F 93% 30.09 in 10.0 mi Calm Calm - N/A   Clear
11:55 PM 32.0 °F - 28.4 °F 87% 30.09 in 10.0 mi Calm Calm - N/A   Clear